| time (UTC) | temp F | wind direction | speed MPH | gust MPH | rain 1hr in | rain 24hr in | rain mn in | humidity % | barometer mb |
| 20260507171556 | 52 | 59 | 1.0 | 4.0 | 0.09 | 1.31 | 1.31 | 95 | 1011.5 |
| 20260507170536 | 52 | 66 | 0.0 | 2.0 | 0.10 | 1.28 | 1.28 | 95 | 1011.6 |
| 20260507165524 | 53 | 32 | 1.0 | 6.0 | 0.13 | 1.27 | 1.27 | 95 | 1011.4 |
| 20260507164607 | 53 | 95 | 2.0 | 4.0 | 0.21 | 1.27 | 1.27 | 95 | 1011.3 |
| 20260507163553 | 53 | 98 | 1.0 | 2.0 | 0.28 | 1.26 | 1.26 | 95 | 1011.4 |
| 20260507162541 | 53 | 351 | 2.0 | 4.0 | 0.34 | 1.25 | 1.25 | 95 | 1011.2 |
| 20260507161548 | 53 | 33 | 1.0 | 8.0 | 0.37 | 1.22 | 1.22 | 95 | 1011.2 |
| 20260507160615 | 53 | 20 | 1.0 | 3.0 | 0.40 | 1.18 | 1.18 | 95 | 1011.4 |
| 20260507155600 | 53 | 339 | 1.0 | 4.0 | 0.44 | 1.14 | 1.14 | 95 | 1011.1 |
| 20260507154543 | 54 | 95 | 3.0 | 6.0 | 0.41 | 1.06 | 1.06 | 95 | 1010.9 |
| 20260507153530 | 55 | 58 | 1.0 | 7.0 | 0.34 | 0.98 | 0.98 | 95 | 1011.1 |
| 20260507152518 | 55 | 23 | 2.0 | 8.0 | 0.29 | 0.91 | 0.91 | 95 | 1011.3 |
| 20260507151605 | 55 | 9 | 2.0 | 8.0 | 0.25 | 0.85 | 0.85 | 95 | 1011.5 |
| 20260507150552 | 55 | 12 | 2.0 | 9.0 | 0.18 | 0.78 | 0.78 | 95 | 1011.4 |
| 20260507145539 | 55 | 353 | 3.0 | 9.0 | 0.11 | 0.70 | 0.70 | 95 | 1011.2 |
| 20260507144606 | 56 | 1 | 3.0 | 9.0 | 0.07 | 0.65 | 0.65 | 95 | 1011.2 |
| 20260507143614 | 57 | 34 | 3.0 | 8.0 | 0.06 | 0.64 | 0.64 | 95 | 1011.0 |
| 20260507142614 | 58 | 15 | 2.0 | 7.0 | 0.05 | 0.62 | 0.62 | 95 | 1010.8 |
| 20260507141541 | 58 | 49 | 2.0 | 7.0 | 0.04 | 0.60 | 0.60 | 95 | 1010.9 |
| 20260507140547 | 59 | 43 | 2.0 | 7.0 | 0.06 | 0.60 | 0.60 | 95 | 1010.7 |
| 20260507135616 | 59 | 80 | 2.0 | 7.0 | 0.09 | 0.59 | 0.59 | 95 | 1010.7 |
| 20260507134600 | 59 | 26 | 2.0 | 6.0 | 0.09 | 0.58 | 0.58 | 95 | 1010.5 |
| 20260507133606 | 60 | 9 | 1.0 | 2.0 | 0.09 | 0.58 | 0.58 | 95 | 1010.5 |
| 20260507132533 | 59 | 356 | 2.0 | 4.0 | 0.09 | 0.57 | 0.57 | 95 | 1010.5 |
| 20260507131521 | 59 | 22 | 1.0 | 4.0 | 0.10 | 0.56 | 0.56 | 95 | 1010.5 |
| 20260507130600 | 59 | 9 | 1.0 | 4.0 | 0.14 | 0.54 | 0.54 | 94 | 1010.8 |
| 20260507125628 | 59 | 359 | 2.0 | 6.0 | 0.15 | 0.50 | 0.50 | 94 | 1011.1 |
| 20260507124534 | 59 | 2 | 2.0 | 7.0 | 0.20 | 0.49 | 0.49 | 94 | 1010.8 |
| 20260507123518 | 59 | 2 | 2.0 | 6.0 | 0.26 | 0.49 | 0.49 | 94 | 1010.8 |
| 20260507122606 | 60 | 2 | 2.0 | 6.0 | 0.29 | 0.48 | 0.48 | 94 | 1011.0 |
| 20260507121552 | 60 | 1 | 2.0 | 7.0 | 0.31 | 0.46 | 0.46 | 94 | 1011.0 |
| 20260507120537 | 62 | 15 | 4.0 | 11.0 | 0.33 | 0.40 | 0.40 | 93 | 1010.7 |
| 20260507115525 | 66 | 298 | 1.0 | 3.0 | 0.28 | 0.35 | 0.35 | 94 | 1010.4 |
| 20260507114613 | 66 | 303 | 0.0 | 3.0 | 0.23 | 0.29 | 0.29 | 93 | 1010.5 |
| 20260507113637 | 66 | 281 | 0.0 | 1.0 | 0.17 | 0.23 | 0.23 | 93 | 1010.3 |
| 20260507112542 | 66 | 302 | 1.0 | 2.0 | 0.16 | 0.19 | 0.19 | 93 | 1010.3 |
| 20260507111610 | 66 | 286 | 1.0 | 3.0 | 0.14 | 0.15 | 0.15 | 93 | 1010.3 |
| 20260507110616 | 66 | 273 | 0.0 | 2.0 | 0.06 | 0.07 | 0.07 | 92 | 1010.2 |
| 20260507105554 | 66 | 283 | 1.0 | 2.0 | 0.06 | 0.07 | 0.07 | 92 | 1010.2 |
| 20260507104541 | 66 | 272 | 1.0 | 2.0 | 0.05 | 0.06 | 0.06 | 91 | 1010.2 |
| 20260507103528 | 67 | 293 | 1.0 | 2.0 | 0.05 | 0.06 | 0.06 | 90 | 1010.1 |
| 20260507102616 | 67 | 298 | 1.0 | 3.0 | 0.02 | 0.03 | 0.03 | 89 | 1010.1 |
| 20260507101603 | 67 | 257 | 2.0 | 6.0 | 0.00 | 0.01 | 0.01 | 88 | 1009.6 |
| 20260507100549 | 67 | 273 | 2.0 | 6.0 | 0.00 | 0.01 | 0.01 | 87 | 1009.3 |
| 20260507095537 | 68 | 254 | 2.0 | 8.0 | 0.00 | 0.01 | 0.01 | 86 | 1009.2 |
| 20260507094545 | 68 | 231 | 2.0 | 6.0 | 0.00 | 0.01 | 0.01 | 85 | 1009.2 |
| 20260507093612 | 68 | 270 | 2.0 | 4.0 | 0.00 | 0.01 | 0.01 | 85 | 1009.0 |
| 20260507092559 | 68 | 272 | 2.0 | 6.0 | 0.00 | 0.01 | 0.01 | 85 | 1009.1 |
| 20260507091543 | 68 | 260 | 1.0 | 6.0 | 0.00 | 0.01 | 0.01 | 84 | 1009.2 |
| 20260507090529 | 68 | 254 | 3.0 | 6.0 | 0.00 | 0.01 | 0.01 | 84 | 1009.3 |
| 20260507085516 | 68 | 268 | 2.0 | 6.0 | 0.00 | 0.01 | 0.01 | 83 | 1009.5 |
| 20260507084600 | 68 | 286 | 3.0 | 7.0 | 0.00 | 0.01 | 0.01 | 83 | 1009.5 |
| 20260507083545 | 68 | 256 | 2.0 | 6.0 | 0.00 | 0.01 | 0.01 | 82 | 1009.8 |
| 20260507082532 | 69 | 278 | 3.0 | 6.0 | 0.00 | 0.01 | 0.01 | 81 | 1009.7 |
| 20260507081519 | 69 | 279 | 3.0 | 8.0 | 0.00 | 0.01 | 0.01 | 80 | 1010.0 |
| 20260507080600 | 69 | 272 | 2.0 | 7.0 | 0.00 | 0.01 | 0.01 | 79 | 1010.0 |
| 20260507075609 | 69 | 281 | 2.0 | 7.0 | 0.00 | 0.01 | 0.01 | 79 | 1010.1 |
| 20260507074534 | 69 | 232 | 2.0 | 6.0 | 0.00 | 0.01 | 0.01 | 79 | 1010.3 |
| 20260507073541 | 69 | 259 | 2.0 | 6.0 | 0.00 | 0.01 | 0.01 | 80 | 1010.1 |
| 20260507072607 | 69 | 249 | 2.0 | 6.0 | 0.01 | 0.01 | 0.01 | 80 | 1010.1 |
| 20260507071554 | 68 | 283 | 1.0 | 7.0 | 0.01 | 0.01 | 0.01 | 81 | 1010.0 |
| 20260507070544 | 68 | 249 | 2.0 | 4.0 | 0.01 | 0.01 | 0.01 | 82 | 1009.9 |
| 20260507065551 | 68 | 256 | 1.0 | 4.0 | 0.01 | 0.01 | 0.01 | 83 | 1009.8 |
| 20260507064518 | 68 | 249 | 0.0 | 2.0 | 0.01 | 0.01 | 0.01 | 82 | 1009.4 |
| 20260507063603 | 68 | 223 | 1.0 | 3.0 | 0.01 | 0.01 | 0.01 | 81 | 1009.6 |
| 20260507062610 | 68 | 234 | 1.0 | 4.0 | 0.00 | 0.00 | 0.00 | 80 | 1009.8 |
| 20260507061537 | 69 | 260 | 1.0 | 3.0 | 0.00 | 0.00 | 0.00 | 80 | 1010.6 |
| 20260507060522 | 69 | 253 | 1.0 | 6.0 | 0.00 | 0.00 | 0.00 | 79 | 1010.8 |
| 20260507055612 | 69 | 263 | 2.0 | 6.0 | 0.00 | 0.00 | 0.00 | 78 | 1010.9 |
| 20260507054558 | 70 | 250 | 2.0 | 7.0 | 0.00 | 0.00 | 0.00 | 75 | 1011.0 |
| 20260507053546 | 70 | 247 | 2.0 | 8.0 | 0.00 | 0.00 | 0.00 | 73 | 1011.0 |
| 20260507052526 | 71 | 251 | 2.0 | 6.0 | 0.00 | 0.00 | 0.00 | 71 | 1011.0 |
| 20260507051613 | 71 | 230 | 3.0 | 7.0 | 0.00 | 0.00 | 0.00 | 69 | 1011.1 |
| 20260507050559 | 72 | 242 | 1.0 | 6.0 | 0.00 | 0.00 | 0.00 | 69 | 1011.0 |
| 20260507045543 | 72 | 220 | 2.0 | 6.0 | 0.00 | 0.00 | 0.00 | 68 | 1010.8 |
| 20260507044530 | 72 | 279 | 2.0 | 7.0 | 0.00 | 0.00 | 0.00 | 67 | 1010.8 |
| 20260507043517 | 72 | 256 | 1.0 | 6.0 | 0.00 | 0.00 | 0.00 | 67 | 1010.9 |
| 20260507042604 | 72 | 257 | 2.0 | 4.0 | 0.00 | 0.00 | 0.00 | 67 | 1011.0 |
| 20260507041552 | 72 | 230 | 1.0 | 3.0 | 0.00 | 0.00 | 0.00 | 67 | 1011.0 |
| 20260507040531 | 72 | 258 | 1.0 | 7.0 | 0.00 | 0.00 | 0.00 | 67 | 1010.8 |
| 20260507035520 | 72 | 258 | 2.0 | 6.0 | 0.00 | 0.00 | 0.00 | 68 | 1010.6 |
| 20260507034607 | 72 | 231 | 1.0 | 3.0 | 0.00 | 0.00 | 0.00 | 69 | 1010.4 |
| 20260507033550 | 72 | 265 | 1.0 | 3.0 | 0.00 | 0.00 | 0.00 | 69 | 1010.5 |
| 20260507032532 | 72 | 252 | 2.0 | 4.0 | 0.00 | 0.00 | 0.00 | 69 | 1010.3 |
| 20260507031518 | 72 | 260 | 0.0 | 1.0 | 0.00 | 0.00 | 0.00 | 69 | 1010.6 |
| 20260507030600 | 72 | 256 | 1.0 | 2.0 | 0.00 | 0.00 | 0.00 | 68 | 1010.7 |
| 20260507025546 | 73 | 244 | 1.0 | 3.0 | 0.00 | 0.00 | 0.00 | 68 | 1010.6 |
| 20260507024533 | 73 | 258 | 1.0 | 3.0 | 0.00 | 0.00 | 0.00 | 67 | 1011.1 |
| 20260507023636 | 73 | 247 | 1.0 | 3.0 | 0.00 | 0.00 | 0.00 | 67 | 1011.3 |
| 20260507022555 | 73 | 248 | 0.0 | 2.0 | 0.00 | 0.00 | 0.00 | 66 | 1011.3 |
| 20260507021543 | 73 | 254 | 0.0 | 2.0 | 0.00 | 0.00 | 0.00 | 66 | 1011.1 |
| 20260507020530 | 74 | 0.0 | 0.0 | 0.00 | 0.00 | 0.00 | 65 | 1011.1 | |
| 20260507015618 | 74 | 247 | 0.0 | 2.0 | 0.00 | 0.00 | 0.00 | 64 | 1011.4 |
| 20260507014625 | 74 | 255 | 1.0 | 2.0 | 0.00 | 0.00 | 0.00 | 64 | 1011.2 |
| 20260507013551 | 74 | 252 | 1.0 | 4.0 | 0.00 | 0.00 | 0.00 | 63 | 1011.0 |
| 20260507012556 | 74 | 179 | 0.0 | 2.0 | 0.00 | 0.00 | 0.00 | 64 | 1011.1 |
| 20260507011523 | 74 | 269 | 0.0 | 1.0 | 0.00 | 0.00 | 0.00 | 63 | 1011.1 |
| 20260507010604 | 74 | 0.0 | 0.0 | 0.00 | 0.00 | 0.00 | 63 | 1011.2 | |
| 20260507005611 | 75 | 251 | 0.0 | 1.0 | 0.00 | 0.00 | 0.00 | 62 | 1011.4 |
| 20260507004539 | 75 | 236 | 0.0 | 2.0 | 0.00 | 0.00 | 0.00 | 61 | 1011.1 |
| 20260507003525 | 76 | 247 | 0.0 | 2.0 | 0.00 | 0.00 | 0.00 | 60 | 1010.7 |
| 20260507002613 | 76 | 255 | 2.0 | 4.0 | 0.00 | 0.00 | 0.00 | 59 | 1010.8 |
| 20260507001601 | 76 | 260 | 2.0 | 4.0 | 0.00 | 0.00 | 0.00 | 59 | 1010.7 |
| 20260507000607 | 76 | 241 | 1.0 | 3.0 | 0.00 | 0.00 | 0.00 | 58 | 1010.6 |
| 20260506235534 | 77 | 227 | 1.0 | 4.0 | 0.00 | 0.00 | 0.00 | 57 | 1010.6 |
| 20260506234521 | 77 | 270 | 2.0 | 3.0 | 0.00 | 0.00 | 0.00 | 57 | 1010.4 |
| 20260506233626 | 77 | 236 | 1.0 | 4.0 | 0.00 | 0.00 | 0.00 | 56 | 1010.1 |
| 20260506232612 | 77 | 252 | 1.0 | 4.0 | 0.00 | 0.00 | 0.00 | 56 | 1010.1 |
| 20260506231535 | 78 | 273 | 2.0 | 4.0 | 0.00 | 0.00 | 0.00 | 55 | 1010.1 |
| 20260506230519 | 78 | 256 | 2.0 | 6.0 | 0.00 | 0.00 | 0.00 | 55 | 1009.9 |
| 20260506225607 | 78 | 224 | 2.0 | 7.0 | 0.00 | 0.00 | 0.00 | 54 | 1009.9 |
| 20260506224615 | 78 | 266 | 2.0 | 7.0 | 0.00 | 0.00 | 0.00 | 54 | 1009.9 |
| 20260506223542 | 78 | 263 | 1.0 | 3.0 | 0.00 | 0.00 | 0.00 | 55 | 1010.0 |
| 20260506222524 | 79 | 241 | 2.0 | 4.0 | 0.00 | 0.00 | 0.00 | 55 | 1009.9 |
| 20260506221603 | 79 | 231 | 2.0 | 4.0 | 0.00 | 0.00 | 0.00 | 55 | 1009.9 |
| 20260506220551 | 79 | 264 | 3.0 | 9.0 | 0.00 | 0.00 | 0.00 | 55 | 1010.0 |
| 20260506215557 | 79 | 248 | 3.0 | 6.0 | 0.00 | 0.00 | 0.00 | 55 | 1009.8 |
| 20260506214516 | 79 | 230 | 3.0 | 10.0 | 0.00 | 0.00 | 0.00 | 55 | 1009.8 |
| 20260506213607 | 79 | 249 | 4.0 | 8.0 | 0.00 | 0.00 | 0.00 | 55 | 1009.7 |
| 20260506212552 | 79 | 260 | 2.0 | 8.0 | 0.00 | 0.00 | 0.00 | 55 | 1009.5 |
| 20260506211537 | 79 | 236 | 3.0 | 7.0 | 0.00 | 0.00 | 0.00 | 54 | 1009.8 |
| 20260506210517 | 79 | 250 | 2.0 | 8.0 | 0.00 | 0.00 | 0.00 | 55 | 1010.1 |
| 20260506205629 | 79 | 230 | 4.0 | 11.0 | 0.00 | 0.00 | 0.00 | 55 | 1010.1 |
| 20260506204553 | 79 | 251 | 2.0 | 10.0 | 0.00 | 0.00 | 0.00 | 56 | 1010.1 |
| 20260506203539 | 79 | 220 | 4.0 | 11.0 | 0.00 | 0.00 | 0.00 | 55 | 1010.4 |
| 20260506202546 | 79 | 232 | 5.0 | 11.0 | 0.00 | 0.00 | 0.00 | 55 | 1010.7 |
| 20260506201614 | 79 | 279 | 4.0 | 10.0 | 0.00 | 0.00 | 0.00 | 55 | 1010.8 |
| 20260506200559 | 79 | 250 | 7.0 | 14.0 | 0.00 | 0.00 | 0.00 | 54 | 1011.1 |
| 20260506195543 | 79 | 239 | 6.0 | 15.0 | 0.00 | 0.00 | 0.00 | 55 | 1011.1 |
| 20260506194550 | 80 | 230 | 3.0 | 8.0 | 0.00 | 0.00 | 0.00 | 57 | 1011.4 |
| 20260506193517 | 79 | 231 | 3.0 | 9.0 | 0.00 | 0.00 | 0.00 | 58 | 1011.5 |
| 20260506192606 | 79 | 257 | 2.0 | 10.0 | 0.00 | 0.00 | 0.00 | 59 | 1011.5 |
| 20260506191553 | 78 | 261 | 3.0 | 10.0 | 0.00 | 0.00 | 0.00 | 60 | 1011.5 |
| 20260506190538 | 77 | 279 | 4.0 | 9.0 | 0.00 | 0.00 | 0.00 | 61 | 1011.6 |
| 20260506185526 | 77 | 282 | 3.0 | 6.0 | 0.00 | 0.00 | 0.00 | 61 | 1011.9 |
| 20260506184615 | 77 | 235 | 4.0 | 9.0 | 0.00 | 0.00 | 0.00 | 60 | 1011.8 |
| 20260506183601 | 77 | 263 | 3.0 | 8.0 | 0.00 | 0.00 | 0.00 | 59 | 1011.9 |
| 20260506182548 | 77 | 205 | 2.0 | 8.0 | 0.00 | 0.00 | 0.00 | 58 | 1012.0 |
| 20260506181534 | 77 | 247 | 4.0 | 9.0 | 0.00 | 0.00 | 0.00 | 58 | 1012.4 |
| 20260506180519 | 77 | 231 | 5.0 | 11.0 | 0.00 | 0.00 | 0.00 | 58 | 1012.6 |
| 20260506175607 | 78 | 237 | 2.0 | 11.0 | 0.00 | 0.00 | 0.00 | 57 | 1012.7 |
| 20260506174554 | 79 | 226 | 4.0 | 13.0 | 0.00 | 0.00 | 0.00 | 56 | 1013.1 |
| 20260506173541 | 78 | 296 | 4.0 | 14.0 | 0.00 | 0.00 | 0.00 | 57 | 1013.1 |
| 20260506172527 | 76 | 254 | 3.0 | 8.0 | 0.00 | 0.00 | 0.00 | 59 | 1013.1 |